Temp
-12 -12 -12 -12 -12 -13 -13 -13 -13 -13 -13 -13 -12 -13 -13 -13 -13 -12 -12 -12 -13 -13 -13 -13 -13 -13 -13 -13 -12 -12 -12 -12 -12 -12 -12 -12 -12 -12 -13 -13 -13 -13
-12 -13 -13 -13 -13 -13 -13 -13 -13 -13 -13 -13 -13 -13 -13 -13 -13 -13 -13 -13 -13 -13 -13 -13 -13 -12 -12 -12 -12 -12 -12 -12 -12 -12 -12 -12 -12 -12 -13 -13 -13 -13
-13 -13 -13 -13 -13 -13 -13 -13 -13 -13 -13 -13 -13 -13 -13 -13 -13 -13 -13 -13 -13 -13 -13 -13 -13 -13 -13 -13 -12 -12 -12 -12 -12 -12 -12 -12 -12 -13 -13 -13 -13 -13
-14 -14 -14 -14 -14 -14 -14 -13 -14 -14 -14 -14 -14 -13 -13 -13 -13 -13 -13 -13 -13 -14 -14 -14 -14 -13 -13 -13 -13 -13 -13 -13 -13 -13 -13 -13 -13 -13 -13 -13 -13 -13
-14 -14 -14 -14 -14 -14 -14 -14 -14 -14 -14 -14 -14 -14 -13 -13 -13 -13 -13 -13 -14 -14 -13 -14 -14 -14 -14 -14 -14 -13 -13 -13 -13 -13 -13 -13 -13 -13 -13 -13 -13 -13
-15 -15 -15 -14 -14 -14 -14 -14 -15 -15 -14 -14 -14 -14 -14 -14 -14 -14 -14 -13 -13 -13 -13 -13 -14 -14 -14 -14 -14 -14 -14 -14 -13 -13 -13 -13 -13 -13 -13 -13 -13 -14
-16 -16 -15 -15 -15 -15 -15 -15 -15 -15 -15 -15 -14 -14 -14 -14 -14 -14 -14 -14 -14 -14 -14 -14 -14 -14 -15 -15 -14 -15 -14 -14 -14 -14 -14 -14 -14 -14 -14 -14 -14 -14
-16 -16 -16 -16 -15 -15 -15 -15 -15 -15 -15 -15 -15 -14 -14 -14 -14 -14 -14 -14 -14 -14 -14 -14 -14 -15 -15 -15 -15 -15 -15 -15 -15 -15 -14 -14 -14 -14 -14 -14 -14 -14
-15 -15 -16 -16 -15 -15 -15 -15 -15 -15 -15 -15 -15 -15 -14 -14 -14 -14 -14 -14 -14 -14 -14 -14 -15 -15 -15 -15 -15 -15 -15 -15 -15 -15 -15 -15 -15 -15 -15 -15 -15 -15
-15 -15 -15 -15 -15 -15 -15 -15 -15 -15 -15 -15 -15 -15 -15 -15 -15 -15 -15 -15 -15 -14 -15 -15 -15 -15 -16 -15 -15 -16 -16 -15 -15 -15 -15 -15 -15 -15 -15 -15 -15 -15
-16 -16 -15 -15 -15 -15 -15 -15 -16 -16 -15 -15 -15 -15 -15 -15 -15 -15 -15 -15 -15 -15 -15 -15 -16 -16 -16 -16 -16 -16 -16 -16 -16 -15 -15 -15 -15 -15 -15 -15 -15 -15
-16 -16 -15 -15 -15 -15 -15 -15 -16 -16 -16 -16 -16 -16 -16 -16 -15 -16 -16 -16 -16 -16 -16 -16 -16 -16 -16 -16 -16 -16 -16 -16 -16 -16 -16 -16 -16 -16 -16 -16 -16 -16
-16 -16 -15 -15 -15 -15 -15 -15 -16 -16 -16 -16 -16 -16 -16 -16 -16 -16 -16 -16 -16 -16 -16 -16 -16 -16 -16 -16 -17 -17 -17 -17 -17 -16 -16 -16 -16 -16 -16 -17 -17 -17
-15 -15 -15 -15 -15 -16 -16 -15 -15 -16 -16 -16 -16 -16 -16 -16 -16 -16 -17 -17 -17 -17 -17 -17 -17 -17 -17 -17 -17 -17 -18 -18 -17 -17 -17 -17 -17 -17 -17 -18 -18 -18
-15 -15 -15 -15 -16 -16 -15 -15 -16 -16 -16 -16 -16 -16 -16 -17 -17 -17 -17 -17 -17 -17 -17 -17 -17 -17 -17 -17 -18 -18 -18 -18 -18 -18 -18 -18 -18 -18 -18 -18 -18 -19
-15 -15 -15 -16 -15 -15 -15 -15 -15 -15 -16 -16 -16 -17 -17 -17 -17 -18 -18 -18 -18 -17 -18 -18 -18 -18 -18 -18 -18 -18 -18 -18 -18 -18 -18 -18 -18 -18 -18 -19 -19 -19
-15 -15 -15 -15 -15 -15 -16 -16 -16 -16 -16 -16 -17 -17 -18 -18 -18 -18 -18 -18 -18 -18 -18 -18 -18 -18 -19 -19 -19 -19 -19 -19 -19 -19 -18 -18 -18 -19 -19 -19 -19 -20
-16 -16 -16 -16 -16 -16 -16 -16 -16 -16 -17 -17 -17 -17 -18 -18 -18 -18 -18 -18 -18 -18 -18 -18 -18 -19 -19 -19 -19 -19 -19 -19 -19 -19 -19 -19 -19 -19 -20 -20 -20 -20
-16 -16 -16 -16 -16 -17 -17 -17 -17 -17 -17 -17 -18 -18 -18 -18 -18 -18 -18 -18 -18 -18 -18 -19 -19 -19 -19 -19 -19 -19 -19 -19 -19 -19 -20 -20 -20 -20 -21 -21 -21 -21
-17 -16 -16 -17 -17 -18 -18 -18 -18 -18 -18 -18 -18 -18 -18 -18 -18 -18 -18 -19 -19 -19 -19 -19 -19 -19 -19 -19 -19 -19 -19 -19 -20 -20 -20 -21 -21 -21 -21 -21 -21 -21
-17 -17 -17 -17 -18 -18 -18 -18 -18 -18 -18 -18 -18 -18 -18 -18 -18 -19 -19 -19 -19 -19 -19 -19 -19 -19 -19 -19 -19 -19 -20 -20 -20 -20 -21 -21 -21 -22 -21 -21 -21 -21
-18 -18 -18 -18 -18 -19 -19 -19 -19 -18 -18 -18 -18 -18 -18 -18 -19 -19 -19 -19 -19 -19 -19 -19 -19 -19 -20 -20 -19 -19 -20 -20 -20 -21 -21 -21 -22 -22 -22 -22 -22 -22
-19 -19 -18 -19 -19 -19 -19 -19 -19 -19 -18 -18 -18 -18 -19 -19 -19 -19 -19 -19 -20 -20 -20 -20 -20 -20 -20 -20 -20 -20 -20 -20 -20 -21 -21 -21 -22 -22 -22 -22 -22 -22
-20 -19 -19 -19 -20 -20 -19 -19 -19 -19 -19 -19 -19 -19 -19 -19 -20 -20 -20 -20 -20 -20 -20 -20 -20 -20 -20 -21 -20 -20 -20 -20 -20 -21 -21 -21 -22 -22 -22 -22 -22 -22
-20 -20 -20 -20 -20 -20 -19 -19 -19 -19 -19 -19 -19 -19 -19 -20 -20 -20 -20 -20 -20 -20 -20 -20 -21 -21 -21 -21 -21 -20 -21 -21 -21 -21 -21 -21 -22 -22 -22 -22 -22 -22
-20 -20 -20 -20 -20 -20 -20 -19 -19 -19 -19 -20 -20 -20 -20 -20 -20 -20 -20 -20 -20 -20 -20 -21 -21 -21 -21 -21 -21 -21 -21 -21 -21 -21 -21 -22 -22 -22 -22 -22 -22 -22
Height
5695 5694 5694 5694 5693 5693 5692 5692 5691 5691 5691 5691 5691 5692 5692 5693 5692 5692 5692 5691 5691 5690 5689 5688 5687 5686 5685 5684 5683 5683 5683 5682 5682 5683 5683 5683 5683 5683 5683 5683 5682 5682
5688 5688 5687 5687 5686 5685 5684 5684 5683 5683 5682 5682 5683 5683 5684 5684 5684 5684 5684 5684 5683 5682 5682 5681 5680 5679 5678 5677 5676 5676 5675 5675 5674 5674 5675 5675 5675 5675 5675 5675 5675 5675
5682 5682 5681 5680 5679 5678 5677 5677 5676 5675 5675 5675 5675 5675 5676 5676 5676 5676 5676 5676 5676 5675 5674 5674 5673 5673 5672 5670 5670 5669 5668 5668 5667 5667 5667 5667 5667 5667 5667 5667 5666 5666
5675 5675 5674 5673 5672 5672 5671 5670 5669 5668 5668 5668 5668 5668 5668 5668 5668 5668 5668 5668 5668 5667 5667 5666 5666 5666 5665 5663 5663 5662 5662 5661 5661 5660 5660 5660 5660 5660 5659 5658 5658 5658
5667 5667 5667 5665 5665 5664 5664 5663 5662 5661 5660 5660 5660 5660 5660 5660 5660 5660 5660 5660 5660 5660 5659 5659 5659 5658 5657 5656 5656 5656 5655 5655 5654 5654 5653 5653 5652 5652 5651 5651 5650 5650
5660 5660 5659 5658 5657 5657 5656 5656 5655 5654 5653 5653 5653 5653 5654 5653 5653 5653 5652 5652 5652 5652 5652 5652 5652 5651 5650 5649 5649 5649 5649 5648 5648 5647 5647 5646 5645 5644 5644 5643 5643 5642
5653 5653 5652 5651 5651 5650 5650 5649 5648 5647 5646 5646 5646 5646 5646 5646 5645 5645 5644 5643 5643 5643 5644 5644 5644 5643 5642 5642 5642 5641 5641 5641 5641 5641 5640 5639 5638 5637 5637 5636 5636 5635
5644 5644 5644 5644 5644 5643 5643 5643 5641 5640 5639 5639 5639 5639 5638 5638 5638 5637 5637 5636 5635 5635 5635 5635 5636 5635 5635 5634 5634 5633 5633 5633 5633 5633 5632 5632 5631 5631 5631 5630 5629 5628
5635 5635 5635 5635 5635 5635 5635 5634 5633 5632 5631 5631 5632 5631 5630 5630 5630 5629 5629 5628 5628 5627 5627 5627 5627 5627 5627 5627 5626 5625 5624 5624 5624 5624 5624 5624 5624 5624 5623 5623 5622 5621
5626 5626 5626 5625 5625 5625 5624 5624 5623 5622 5622 5623 5622 5621 5620 5620 5620 5621 5621 5620 5620 5619 5618 5618 5618 5618 5618 5618 5617 5616 5616 5616 5616 5616 5615 5615 5615 5615 5615 5614 5613 5612
5618 5617 5617 5617 5616 5615 5614 5613 5612 5612 5613 5613 5612 5612 5611 5610 5611 5612 5611 5611 5611 5610 5609 5609 5609 5609 5609 5609 5608 5607 5607 5607 5607 5606 5606 5606 5606 5606 5605 5604 5603 5602
5610 5609 5608 5607 5606 5605 5604 5603 5602 5602 5602 5603 5603 5603 5602 5601 5601 5602 5602 5602 5601 5601 5600 5600 5599 5599 5600 5600 5599 5598 5598 5597 5597 5596 5596 5596 5596 5595 5594 5593 5592 5591
5601 5600 5599 5598 5596 5596 5595 5593 5592 5592 5592 5593 5593 5593 5593 5593 5592 5592 5593 5592 5592 5591 5591 5591 5591 5591 5591 5591 5590 5589 5589 5587 5586 5586 5586 5585 5585 5584 5583 5582 5582 5581
5591 5590 5589 5589 5588 5587 5586 5586 5585 5584 5584 5584 5584 5584 5584 5583 5583 5583 5583 5583 5582 5582 5582 5582 5582 5582 5582 5582 5581 5580 5579 5578 5577 5577 5576 5575 5575 5574 5573 5573 5572 5571
5580 5580 5580 5580 5580 5579 5579 5578 5578 5577 5577 5576 5576 5575 5574 5574 5573 5573 5573 5573 5572 5572 5573 5573 5573 5573 5573 5572 5571 5570 5569 5568 5568 5567 5566 5566 5565 5565 5564 5564 5563 5563
5570 5570 5570 5570 5570 5570 5570 5570 5569 5569 5568 5567 5566 5565 5564 5564 5563 5563 5564 5564 5563 5563 5563 5563 5563 5563 5563 5562 5561 5561 5560 5559 5559 5558 5557 5557 5556 5556 5555 5555 5555 5555
5560 5560 5560 5560 5560 5559 5560 5560 5560 5559 5558 5557 5556 5555 5554 5554 5554 5554 5555 5554 5554 5554 5554 5555 5555 5554 5554 5553 5553 5552 5552 5551 5550 5550 5549 5549 5548 5547 5547 5546 5546 5546
5550 5550 5550 5550 5549 5549 5549 5550 5550 5549 5548 5547 5546 5546 5544 5544 5545 5545 5546 5546 5546 5546 5547 5546 5546 5546 5545 5544 5544 5544 5543 5543 5542 5542 5541 5540 5539 5538 5537 5537 5537 5536
5538 5538 5539 5539 5539 5539 5539 5539 5539 5539 5538 5538 5537 5536 5535 5535 5536 5536 5537 5538 5538 5539 5539 5538 5538 5537 5536 5535 5535 5535 5534 5534 5533 5532 5532 5531 5530 5529 5529 5528 5528 5527
5526 5526 5526 5526 5526 5527 5528 5528 5528 5528 5528 5528 5527 5527 5527 5526 5527 5527 5528 5528 5529 5530 5530 5530 5530 5529 5527 5527 5526 5526 5526 5525 5524 5523 5522 5522 5521 5521 5520 5520 5519 5519
5513 5513 5513 5513 5514 5515 5517 5518 5518 5518 5518 5518 5517 5517 5517 5517 5517 5517 5517 5518 5519 5521 5521 5521 5521 5520 5519 5519 5519 5519 5518 5516 5514 5514 5513 5513 5513 5512 5511 5511 5511 5510
5499 5500 5501 5502 5504 5505 5506 5507 5507 5507 5508 5507 5507 5507 5507 5507 5507 5507 5508 5509 5510 5512 5512 5513 5513 5511 5511 5511 5511 5511 5510 5508 5506 5505 5505 5504 5504 5503 5503 5502 5502 5501
5487 5489 5490 5492 5493 5495 5496 5496 5496 5496 5497 5496 5496 5496 5497 5497 5497 5497 5498 5500 5502 5503 5504 5504 5504 5503 5502 5502 5502 5502 5502 5500 5497 5497 5496 5496 5495 5495 5494 5494 5493 5492
5476 5478 5480 5481 5483 5484 5484 5485 5485 5485 5485 5485 5486 5487 5487 5487 5487 5488 5489 5491 5493 5495 5495 5494 5494 5494 5493 5493 5492 5493 5493 5491 5489 5489 5488 5487 5487 5486 5485 5484 5484 5483
5466 5468 5469 5471 5472 5473 5473 5474 5474 5474 5474 5475 5476 5477 5477 5477 5478 5479 5480 5482 5484 5485 5485 5484 5483 5483 5483 5483 5483 5484 5485 5483 5480 5480 5480 5478 5478 5476 5476 5475 5475 5474
5456 5457 5458 5460 5461 5462 5462 5463 5463 5463 5463 5464 5465 5466 5467 5467 5468 5469 5470 5472 5473 5475 5475 5474 5473 5472 5472 5473 5473 5474 5476 5474 5472 5471 5470 5468 5468 5467 5466 5466 5465 5465
Wind_Speed
46 46 46 46 46 47 48 49 51 52 53 53 53 52 51 49 49 50 51 52 53 54 54 55 57 58 59 60 61 61 62 62 61 60 58 57 56 55 54 53 53 54
47 47 47 48 48 49 50 51 52 54 54 55 54 53 52 50 50 50 51 52 53 54 55 56 57 58 59 61 62 61 62 62 62 61 60 59 57 55 54 54 55 56
48 48 49 50 51 52 53 53 54 54 55 54 54 53 52 52 51 50 50 51 52 54 55 55 56 58 59 61 62 62 62 62 62 62 61 60 58 56 55 55 56 56
49 49 49 51 52 53 53 54 54 55 55 55 54 54 54 53 52 51 51 52 53 55 56 56 56 57 59 60 62 62 62 62 63 62 62 61 59 57 55 54 55 55
51 50 50 51 52 52 53 54 55 55 56 56 56 55 55 54 54 54 54 54 55 57 58 58 57 57 58 60 61 61 61 61 62 63 62 61 59 57 55 55 55 56
52 52 51 51 52 53 54 55 55 56 57 57 57 57 56 56 56 56 56 57 58 59 60 60 60 59 59 59 59 59 59 59 60 61 61 61 59 58 57 58 58 59
53 53 52 52 52 54 55 57 59 59 59 59 60 60 58 58 58 58 59 60 61 62 62 62 63 62 61 60 59 59 58 57 58 59 59 60 60 60 60 60 60 61
55 54 53 53 53 54 55 57 59 61 62 62 61 61 61 61 60 60 61 63 64 64 64 64 64 62 61 61 60 59 58 56 56 56 57 58 59 60 60 60 61 61
57 56 55 55 55 54 54 54 56 59 62 63 62 63 63 62 62 62 63 65 66 66 66 66 65 62 61 60 60 59 58 57 56 56 57 58 59 60 61 62 63 64
61 59 58 58 56 56 55 55 55 56 59 61 62 63 63 63 62 63 65 66 66 66 67 66 65 63 61 60 59 59 58 58 59 60 61 62 63 64 65 66 67 67
63 62 60 58 57 57 57 57 57 57 58 60 62 63 64 65 64 64 65 66 66 66 66 66 65 64 62 60 60 60 59 60 62 63 65 66 67 68 69 69 69 69
63 63 61 60 58 57 57 58 59 59 60 61 62 64 65 67 66 64 63 64 64 65 65 65 66 65 63 62 61 61 61 63 65 67 68 69 70 70 70 69 69 69
63 63 62 61 59 58 58 59 60 59 60 60 61 64 66 66 66 64 62 62 64 64 65 65 65 65 64 63 63 63 63 65 67 68 69 70 70 70 69 69 69 69
64 63 62 61 61 60 60 59 59 59 59 60 61 64 65 65 64 63 62 62 64 64 64 64 63 63 63 63 64 64 65 66 67 68 69 69 69 69 69 69 69 68
64 64 63 63 62 62 62 61 61 61 62 62 63 64 64 63 63 62 62 62 64 65 65 64 63 62 63 63 64 64 65 66 67 68 69 69 69 69 69 70 69 68
68 68 68 66 65 65 66 67 67 67 67 66 64 63 63 62 62 62 62 63 65 65 64 63 62 62 62 62 62 63 65 66 66 67 68 68 69 70 70 70 68 66
73 73 72 70 69 68 69 70 71 71 69 68 66 65 64 63 63 62 62 63 65 64 63 62 61 60 61 61 62 63 63 63 64 65 66 67 68 69 69 68 66 63
76 76 74 72 70 70 72 73 74 72 70 69 67 66 66 65 64 63 63 63 63 61 60 59 60 60 61 62 62 63 63 64 65 66 66 67 66 65 64 63 62 60
79 79 77 76 74 74 75 76 75 73 70 69 68 68 68 67 66 65 63 61 59 58 59 60 60 61 62 63 64 65 67 67 66 65 64 63 61 59 58 58 58 58
83 82 81 81 79 78 75 74 73 71 69 69 70 70 70 69 67 64 61 60 58 57 58 59 59 61 63 64 64 65 64 63 62 60 59 57 55 55 55 55 57 57
85 85 85 84 82 78 74 72 71 70 69 70 71 72 72 71 67 64 61 59 57 56 56 57 59 62 64 63 62 61 60 60 60 57 55 54 52 52 53 54 56 57
85 85 85 84 81 77 73 72 72 71 71 72 74 74 73 70 66 64 61 59 57 55 55 57 60 62 62 61 61 60 58 60 62 58 55 54 53 53 54 54 56 57
83 83 82 80 78 76 74 73 73 73 74 75 75 74 71 67 64 62 61 59 57 55 55 58 61 61 60 59 59 58 57 60 63 61 57 55 54 55 55 56 57 59
80 79 78 77 76 76 76 75 74 74 75 75 73 68 64 64 64 62 61 59 57 56 59 62 62 59 58 58 56 56 57 61 63 61 58 57 57 58 58 58 60 61
79 78 77 77 77 77 78 77 77 77 75 74 72 69 66 66 66 64 62 60 58 59 62 63 61 60 60 60 58 58 59 61 63 62 61 62 62 61 60 60 62 64
79 78 77 76 76 78 78 77 76 76 74 70 69 69 70 70 68 65 64 62 61 62 63 63 62 62 62 62 62 62 62 63 65 65 65 65 65 64 63 63 64 66
Wind_Direction
265 267 269 270 271 272 273 274 274 274 275 275 275 275 274 274 274 275 277 277 278 278 277 277 277 277 278 278 279 279 280 280 280 279 278 279 279 279 279 278 278 278
265 266 268 269 270 271 271 272 272 273 273 274 274 274 275 275 275 275 276 277 277 277 277 278 279 279 279 279 279 279 279 279 279 279 278 278 278 278 277 276 276 275
263 265 266 267 267 268 269 270 271 272 272 273 273 274 274 274 274 275 276 277 278 278 278 278 279 279 279 279 278 278 277 277 277 277 277 277 277 277 276 275 275 274
267 268 268 268 267 268 268 269 270 271 272 273 273 273 273 274 274 275 276 278 278 279 279 279 279 279 279 278 277 276 275 275 275 275 276 276 276 276 275 274 274 273
269 269 269 269 268 268 269 270 271 272 272 272 272 272 272 273 273 274 275 276 277 278 279 279 280 279 278 277 276 274 273 273 273 273 274 275 275 274 274 273 273 273
266 267 266 266 267 267 269 270 271 272 273 273 272 272 272 272 272 273 274 275 277 278 279 279 280 280 278 276 275 274 272 271 271 271 272 273 273 272 272 273 273 274
262 263 263 264 265 266 267 269 270 271 272 272 272 272 273 273 273 274 274 275 277 278 279 279 279 279 278 276 275 274 274 272 270 269 269 269 270 270 271 273 274 276
260 261 263 265 266 266 266 267 268 268 269 269 270 271 272 272 273 273 274 275 276 278 279 278 277 277 276 275 274 274 273 272 270 269 268 268 269 270 271 273 275 277
262 264 266 268 268 268 267 266 266 267 267 267 268 270 271 271 272 273 273 274 275 276 277 276 276 275 273 272 272 271 270 270 269 269 269 269 269 270 272 273 275 276
264 266 267 269 270 270 269 267 266 266 266 266 266 267 269 270 271 272 272 273 273 274 274 274 274 273 271 271 269 268 268 269 269 270 270 271 271 272 274 275 275 276
265 267 268 270 271 271 270 269 267 265 264 264 264 265 266 267 268 269 269 270 270 271 271 271 271 270 270 268 266 265 267 269 270 270 271 272 273 274 275 274 274 275
263 265 268 270 270 270 269 269 267 266 265 265 265 265 265 266 267 267 266 267 268 268 268 268 268 268 267 266 265 265 268 269 270 271 271 273 273 273 273 274 274 275
260 262 265 268 268 269 269 269 269 268 268 267 267 267 267 266 266 265 265 266 266 266 265 266 266 266 266 266 266 267 269 271 271 272 272 273 273 273 274 275 276 277
258 259 261 263 265 267 268 270 271 271 270 270 268 267 266 265 264 264 264 264 265 265 264 264 264 265 266 266 267 269 270 271 271 272 273 273 273 274 276 277 278 279
258 257 259 261 263 266 268 269 271 272 273 272 270 267 265 264 262 262 262 262 263 263 262 261 263 265 267 268 268 269 270 271 272 272 273 273 275 277 278 279 280 280
259 260 261 263 264 266 267 268 270 272 273 272 270 267 265 264 262 262 262 261 260 260 259 261 264 267 269 270 271 271 270 271 271 272 273 274 276 278 279 280 281 281
260 262 263 264 265 266 267 268 270 271 271 269 267 266 264 263 262 262 261 259 259 259 260 263 267 269 271 272 271 270 269 270 271 272 274 275 276 277 278 279 279 279
259 260 261 262 263 266 269 271 272 272 269 266 264 263 262 261 260 259 258 258 259 262 264 267 269 270 271 271 271 270 271 272 272 273 273 273 273 275 276 277 277 277
260 260 261 261 263 268 272 271 270 269 266 263 261 260 259 258 257 257 257 259 262 265 267 269 269 270 271 271 271 271 271 271 271 271 270 270 272 273 275 275 276 277
261 262 262 262 265 270 270 268 266 265 262 261 260 258 257 256 256 256 256 258 261 265 267 269 270 270 270 269 269 271 271 271 270 268 268 269 271 273 274 276 277 278
263 262 262 263 267 269 268 265 264 262 261 260 259 257 255 255 254 254 255 258 263 266 269 270 270 270 269 270 273 276 275 272 268 265 266 269 271 272 274 276 277 278
266 265 265 266 268 268 266 265 264 262 260 259 257 255 254 253 253 255 258 262 266 267 270 271 269 269 272 274 277 279 278 272 266 264 266 268 269 270 273 276 277 278
268 268 269 269 269 267 265 264 263 260 258 256 255 254 253 252 252 256 260 262 264 268 270 270 268 269 273 275 276 279 278 272 266 265 266 267 267 270 273 275 277 280
268 268 268 268 267 266 265 264 262 259 256 254 253 253 254 253 255 259 262 263 266 270 270 268 268 271 272 273 275 278 279 274 268 266 266 266 266 269 272 275 278 281
267 267 267 266 265 264 263 263 262 260 259 257 255 255 255 256 258 262 264 265 268 270 269 269 271 272 271 271 273 274 275 274 272 270 268 266 266 267 269 274 278 281
266 266 266 265 263 262 262 262 263 263 263 263 261 259 258 258 259 260 261 263 266 269 269 269 271 272 271 271 271 270 271 273 273 271 268 266 265 266 269 274 278 280